Location: Larrial
(48.2758°N, 4.5331°W)
Time: 14:00:22
(UTC+00:00)

XW-2F - Visible Passes

Search period start: 28 November 2021 00:00
Search period end: 08 December 2021 00:00
Orbit: 497 x 515 km, 97.5° (Epoch: 28 November)

Date Brightness Start Highest point End Pass type
(mag) Time Alt. Az. Time Alt. Az. Time Alt. Az.
28 Nov ? 05:46:00 10° NE 05:48:55 21° E 05:51:49 10° SE visible
28 Nov ? 18:01:28 10° S 18:05:00 43° W 18:08:36 10° NNW visible
29 Nov ? 05:29:02 10° ENE 05:31:01 14° E 05:33:01 10° ESE visible
29 Nov ? 07:01:31 10° N 07:05:13 53° WNW 07:08:53 10° SSW visible
29 Nov ? 17:43:32 10° S 17:47:14 71° WSW 17:50:58 10° NNW visible
30 Nov ? 06:43:43 10° NNE 06:47:31 86° WNW 06:51:17 10° SSW visible
30 Nov ? 17:25:49 10° SSE 17:29:29 71° ENE 17:33:14 10° N visible
30 Nov ? 19:03:22 10° W 19:03:50 10° W 19:04:19 10° W visible
01 Dec ? 06:26:01 10° NNE 06:29:45 59° E 06:33:28 10° S visible
01 Dec ? 17:08:16 10° SE 17:11:48 44° ENE 17:15:22 10° N visible
01 Dec ? 18:43:33 10° SW 18:45:54 16° W 18:48:16 10° NW visible
02 Dec ? 06:08:25 10° NNE 06:11:57 36° E 06:15:27 10° SSE visible
02 Dec ? 18:24:56 10° SSW 18:28:01 24° W 18:31:07 10° NW visible
03 Dec ? 05:51:00 10° NE 05:54:06 24° E 05:57:10 10° SSE visible
03 Dec ? 18:06:40 10° SSW 18:10:09 38° W 18:13:41 10° NNW visible
04 Dec ? 05:33:52 10° NE 05:36:11 16° E 05:38:30 10° SE visible
04 Dec ? 07:06:41 10° N 07:10:19 46° WNW 07:13:56 10° SW visible
04 Dec ? 17:48:39 10° S 17:52:20 62° W 17:56:04 10° NNW visible
05 Dec ? 06:48:49 10° N 06:52:36 75° WNW 06:56:21 10° SSW visible
05 Dec ? 17:30:51 10° SSE 17:34:33 82° ENE 17:38:20 10° N visible
06 Dec ? 06:31:04 10° NNE 06:34:50 67° ESE 06:38:34 10° S visible
06 Dec ? 17:13:13 10° SSE 17:16:50 50° ENE 17:20:29 10° N visible
06 Dec ? 18:48:56 10° SW 18:51:00 14° W 18:53:05 10° NW visible
07 Dec ? 06:13:25 10° NNE 06:17:01 41° E 06:20:35 10° S visible
07 Dec ? 18:30:08 10° SW 18:33:04 22° W 18:36:02 10° NW visible
